Hourly Weather Sredniy Pshalym

Today, 6 August, Thursday

Time Temperature Precipitation Wind Pressure Humidity
00:00 +19°C° 0 mm 2 mps 750 mmHg 95%
01:00 +19°C° 0 mm 2 mps 751 mmHg 95%
02:00 +19°C° 0 mm 2 mps 751 mmHg 95%
03:00 +19°C° 0 mm 2 mps 751 mmHg 95%
04:00 +19°C° 0 mm 2 mps 751 mmHg 94%
05:00 +19°C° 0 mm 3 mps 751 mmHg 93%
06:00 +20°C° 0 mm 3 mps 751 mmHg 93%
07:00 +21°C° 0 mm 3 mps 751 mmHg 89%
08:00 +24°C° 0 mm 3 mps 751 mmHg 86%
09:00 +25°C° 0 mm 3 mps 751 mmHg 82%
10:00 +26°C° 0 mm 3 mps 751 mmHg 76%
11:00 +27°C° 0 mm 3 mps 751 mmHg 71%
12:00 +28°C° 0 mm 3 mps 750 mmHg 65%
13:00 +29°C° 0 mm 2 mps 750 mmHg 63%
14:00 +29°C° 0 mm 2 mps 750 mmHg 60%
15:00 +30°C° 0 mm 2 mps 750 mmHg 58%
16:00 +29°C° 0 mm 1 mps 750 mmHg 62%
17:00 +28°C° 0 mm 1 mps 750 mmHg 65%
18:00 +27°C° 0 mm 1 mps 750 mmHg 69%
19:00 +24°C° 0 mm 0 mps 750 mmHg 73%
20:00 +22°C° 0 mm 0 mps 749 mmHg 77%
21:00 +21°C° 0 mm 0 mps 749 mmHg 81%
22:00 +20°C° 0 mm 0 mps 749 mmHg 83%
23:00 +20°C° 0 mm 0 mps 749 mmHg 84%

Tomorrow, 7 August, Friday

Time Temperature Precipitation Wind Pressure Humidity
00:00 +19°C° 0 mm 0 mps 749 mmHg 85%
01:00 +19°C° 0.1 mm 0 mps 749 mmHg 86%
02:00 +19°C° 0.1 mm 0 mps 749 mmHg 87%
03:00 +21°C° 0.1 mm 1 mps 749 mmHg 88%
04:00 +21°C° 0 mm 1 mps 749 mmHg 88%
05:00 +21°C° 0 mm 1 mps 748 mmHg 89%
06:00 +21°C° 0 mm 2 mps 748 mmHg 89%
07:00 +22°C° 0.5 mm 3 mps 748 mmHg 86%
08:00 +22°C° 0.5 mm 3 mps 748 mmHg 82%
09:00 +23°C° 0.5 mm 4 mps 748 mmHg 79%
10:00 +25°C° 0.1 mm 5 mps 748 mmHg 75%
11:00 +26°C° 0.1 mm 5 mps 748 mmHg 70%
12:00 +26°C° 0.1 mm 5 mps 748 mmHg 65%
13:00 +26°C° 0 mm 5 mps 748 mmHg 67%
14:00 +26°C° 0 mm 6 mps 748 mmHg 69%
15:00 +26°C° 0 mm 6 mps 748 mmHg 71%
16:00 +23°C° 0 mm 6 mps 748 mmHg 73%
17:00 +22°C° 0 mm 6 mps 748 mmHg 74%
18:00 +21°C° 0 mm 5 mps 748 mmHg 75%
19:00 +20°C° 0 mm 5 mps 749 mmHg 74%
20:00 +19°C° 0 mm 6 mps 749 mmHg 74%
21:00 +17°C° 0 mm 6 mps 749 mmHg 73%
22:00 +16°C° 0 mm 6 mps 749 mmHg 72%
23:00 +15°C° 0 mm 5 mps 749 mmHg 71%

Day after tomorrow, 8 August, Saturday

Time Temperature Precipitation Wind Pressure Humidity
00:00 +14°C° 0 mm 5 mps 749 mmHg 70%
01:00 +14°C° 0 mm 5 mps 749 mmHg 72%
02:00 +13°C° 0 mm 5 mps 749 mmHg 75%
03:00 +13°C° 0 mm 5 mps 749 mmHg 78%
04:00 +13°C° 0 mm 5 mps 749 mmHg 78%
05:00 +13°C° 0 mm 5 mps 749 mmHg 79%
06:00 +13°C° 0 mm 6 mps 749 mmHg 79%
07:00 +15°C° 0 mm 6 mps 749 mmHg 76%
08:00 +16°C° 0 mm 6 mps 748 mmHg 73%
09:00 +17°C° 0 mm 6 mps 748 mmHg 70%
10:00 +18°C° 0 mm 7 mps 748 mmHg 69%
11:00 +20°C° 0 mm 7 mps 748 mmHg 67%
12:00 +21°C° 0 mm 7 mps 748 mmHg 65%
13:00 +21°C° 0 mm 7 mps 747 mmHg 66%
14:00 +21°C° 0 mm 7 mps 747 mmHg 66%
15:00 +20°C° 0 mm 7 mps 747 mmHg 67%
16:00 +20°C° 0 mm 6 mps 747 mmHg 70%
17:00 +19°C° 0 mm 5 mps 747 mmHg 73%
18:00 +17°C° 0 mm 5 mps 746 mmHg 76%
19:00 +17°C° 0 mm 4 mps 746 mmHg 80%
20:00 +15°C° 0 mm 4 mps 746 mmHg 83%
21:00 +14°C° 0 mm 4 mps 746 mmHg 87%
22:00 +13°C° 0 mm 4 mps 746 mmHg 89%
23:00 +13°C° 0 mm 4 mps 745 mmHg 90%

9 August, Sunday

Time Temperature Precipitation Wind Pressure Humidity
00:00 +12°C° 0 mm 4 mps 745 mmHg 92%
01:00 +12°C° 0 mm 4 mps 745 mmHg 93%
02:00 +12°C° 0 mm 4 mps 745 mmHg 93%
03:00 +11°C° 0 mm 4 mps 744 mmHg 94%
04:00 +12°C° 0 mm 5 mps 744 mmHg 90%
05:00 +12°C° 0 mm 5 mps 744 mmHg 86%
06:00 +11°C° 0 mm 6 mps 744 mmHg 83%
07:00 +13°C° 0 mm 6 mps 744 mmHg 78%
08:00 +15°C° 0 mm 7 mps 744 mmHg 73%
09:00 +16°C° 0 mm 7 mps 743 mmHg 68%
10:00 +17°C° 0 mm 7 mps 743 mmHg 66%
11:00 +18°C° 0 mm 7 mps 744 mmHg 64%
12:00 +20°C° 0 mm 7 mps 744 mmHg 61%
13:00 +18°C° 0 mm 7 mps 744 mmHg 62%
14:00 +18°C° 0 mm 7 mps 743 mmHg 62%
15:00 +18°C° 0 mm 7 mps 743 mmHg 63%
16:00 +18°C° 0 mm 7 mps 744 mmHg 66%
17:00 +17°C° 0 mm 6 mps 744 mmHg 70%
18:00 +17°C° 0 mm 5 mps 744 mmHg 73%
19:00 +16°C° 0 mm 5 mps 744 mmHg 75%
20:00 +15°C° 0 mm 5 mps 744 mmHg 76%
21:00 +14°C° 0 mm 5 mps 744 mmHg 77%
22:00 +13°C° 0 mm 5 mps 744 mmHg 78%
23:00 +13°C° 0 mm 5 mps 744 mmHg 79%

10 August, Monday

Time Temperature Precipitation Wind Pressure Humidity
00:00 +11°C° 0 mm 6 mps 744 mmHg 79%
01:00 +10°C° 0 mm 5 mps 744 mmHg 81%
02:00 +10°C° 0 mm 5 mps 744 mmHg 84%
03:00 +9°C° 0 mm 5 mps 744 mmHg 86%
04:00 +9°C° 0 mm 6 mps 744 mmHg 84%
05:00 +9°C° 0 mm 6 mps 744 mmHg 82%
06:00 +9°C° 0 mm 6 mps 745 mmHg 80%
07:00 +11°C° 0 mm 6 mps 745 mmHg 76%
08:00 +12°C° 0 mm 7 mps 744 mmHg 71%
09:00 +14°C° 0 mm 7 mps 744 mmHg 66%
10:00 +15°C° 0 mm 7 mps 744 mmHg 64%
11:00 +16°C° 0 mm 7 mps 745 mmHg 61%
12:00 +17°C° 0 mm 7 mps 745 mmHg 58%
13:00 +17°C° 0 mm 7 mps 745 mmHg 59%
14:00 +17°C° 0 mm 7 mps 745 mmHg 59%
15:00 +17°C° 0 mm 7 mps 745 mmHg 59%
16:00 +16°C° 0 mm 6 mps 745 mmHg 62%
17:00 +15°C° 0 mm 6 mps 745 mmHg 66%
18:00 +15°C° 0 mm 5 mps 745 mmHg 69%
19:00 +13°C° 0 mm 5 mps 745 mmHg 72%
20:00 +12°C° 0 mm 4 mps 745 mmHg 75%
21:00 +11°C° 0 mm 4 mps 745 mmHg 78%
22:00 +11°C° 0 mm 4 mps 745 mmHg 79%
23:00 +10°C° 0 mm 4 mps 746 mmHg 81%

11 August, Tuesday

Time Temperature Precipitation Wind Pressure Humidity
00:00 +10°C° 0 mm 4 mps 746 mmHg 82%
01:00 +8°C° 0 mm 4 mps 746 mmHg 83%
02:00 +9°C° 0 mm 3 mps 746 mmHg 84%
03:00 +8°C° 0 mm 3 mps 746 mmHg 85%
04:00 +8°C° 0 mm 4 mps 746 mmHg 83%
05:00 +10°C° 0 mm 4 mps 746 mmHg 81%
06:00 +10°C° 0 mm 4 mps 746 mmHg 79%
07:00 +12°C° 0 mm 4 mps 746 mmHg 74%
08:00 +14°C° 0 mm 4 mps 746 mmHg 68%
09:00 +17°C° 0 mm 4 mps 746 mmHg 63%
10:00 +17°C° 0 mm 4 mps 746 mmHg 60%
11:00 +18°C° 0 mm 4 mps 746 mmHg 58%
12:00 +19°C° 0 mm 4 mps 746 mmHg 55%
13:00 +19°C° 0 mm 4 mps 746 mmHg 55%
14:00 +20°C° 0 mm 4 mps 746 mmHg 55%
15:00 +20°C° 0 mm 4 mps 746 mmHg 55%
16:00 +19°C° 0 mm 3 mps 746 mmHg 60%
17:00 +18°C° 0 mm 3 mps 746 mmHg 65%
18:00 +17°C° 0 mm 3 mps 746 mmHg 70%
19:00 +16°C° 0 mm 3 mps 746 mmHg 73%
20:00 +13°C° 0 mm 3 mps 746 mmHg 76%
21:00 +13°C° 0 mm 2 mps 746 mmHg 79%
22:00 +13°C° 0 mm 2 mps 746 mmHg 81%
23:00 +12°C° 0 mm 2 mps 746 mmHg 82%
Show more